Regional Weather Roundup
Issued by NWS

Home | Current Version | Previous Version | Graphics & Text | Print | Product List | Glossary On
Versions: 1 2 3 4 5 6 7 8 9 10 11 12 13 14 15 16 17 18 19 20 21 22 23 24 25 26 27 28 29 30 31 32 33 34 35 36 37 38 39 40 41 42 43 44 45 46 47 48 49 50
424
ASUS43 KFSD 101102
RWRSD

WEATHER ROUNDUP FOR SOUTH DAKOTA
NATIONAL WEATHER SERVICE SIOUX FALLS SD
500 AM CST SAT DEC 10 2016

NOTE: "FAIR" INDICATES FEW OR NO CLOUDS BELOW 12,000 FEET WITH NO
SIGNIFICANT WEATHER AND/OR OBSTRUCTIONS TO VISIBILITY.


SDZ001>005-009-010-012>017-101200-
NORTHWEST AND NORTH CENTRAL SOUTH DAKOTA

CITY           SKY/WX    TMP DP  RH WIND       PRES   REMARKS
BUFFALO          N/A      0  -5  79 E10       30.06S WCI -16
FAITH            N/A     -1  -3  91 SE12      30.22F WCI -18
MOBRIDGE       CLOUDY    -6 -12  75 E10       30.35S WCI -24
$$

SDZ012>016-024>037-041>051-057-063-072>074-101200-
SOUTHWEST AND SOUTH CENTRAL SOUTH DAKOTA

CITY           SKY/WX    TMP DP  RH WIND       PRES   REMARKS
RAPID CTY ARPT CLOUDY     4  -1  80 SE16      30.09F WCI -15
PIERRE         LGT SNOW  -1  -6  79 E10       30.35F WCI -17
CUSTER         CLOUDY     7   3  84 S3        29.86F
ELLSWORTH AFB  CLOUDY     4  -1  81 SE15      30.07F WCI -15
PHILIP         FLURRIES   1  -3  83 E12       30.24F WCI -16
PINE RIDGE     CLOUDY     6   2  83 E7        30.08F WCI  -6
SPEARFISH      CLOUDY     3  -2  78 N3        30.01F
WINNER         LGT SNOW   6   2  83 E9        30.31F VSB 1   WCI  -8
$$

SDZ004>011-016>023-039-040-101200-
NORTHEAST SOUTH DAKOTA

CITY           SKY/WX    TMP DP  RH WIND       PRES   REMARKS
ABERDEEN       CLOUDY    -6 -15  65 N8        30.48F WCI -21
WATERTOWN      CLOUDY    -2  -6  83 NE3       30.41F
SISSETON         N/A     -8 -13  78 NW6       30.49F WCI -21
$$

SDZ017-020-022-023-036>040-048>070-101200-
SOUTHEAST SOUTH DAKOTA

CITY           SKY/WX    TMP DP  RH WIND       PRES   REMARKS
SIOUX FALLS    FLURRIES  10   7  87 NE6       30.42F WCI   0
HURON          CLOUDY     0  -4  83 NE7       30.44F WCI -13
CHAMBERLAIN    LGT SNOW   6   2  85 E7        30.38F WCI  -6
MITCHELL       FLURRIES   7   3  84 NE9       30.43F WCI  -7
YANKTON        CLOUDY    10   7  85 CALM      30.41F
$$

ABBREVIATIONS USED IN REMARKS
   TC - TEMPERATURE IN CELSIUS
  WCI - WIND CHILL INDEX
   HX - HEAT INDEX
  VSB - VISIBILITY





USA.gov is the U.S. government's official web portal to all federal, state and local government web resources and services.